Notices

What's New in latest Release from April 7th, 2021:

- Updated Glossary, including Speed of Maximum Gust, and Total Hourly Precipitation

- Updated national and regional climate services offices contacts and prices information

- Addition of station inventory lists for 1981-2010, 1971-2000, and 1961-1990 Normals.

If you haven't already, please take our survey and provide feedback about our website: https://eccc.sondage-survey.ca/f/LanguageSelection.aspx?s=442ca660-fcf1-47c0-95a9-59707d6fd709

Hourly Data Report for January 30, 2020

SATURNA ISLAND CS
BRITISH COLUMBIA
Current Station Operator: ECCC - MSC

48°47'02.067" N
123°02'41.082" W
24.40 m
1017101
71473
WEZ

Download Data

Hourly Data (January 2020)
Hourly Data Report for January 30, 2020
TIME
LST
Temp Definition
°C
Dew Point Definition
°C
Rel Hum Definition
%
Precip. Amount Definition
mm

Wind Dir Definition
10's deg

Wind Spd Definition
km/h
Visibility Definition
km
Stn Press Definition
kPa
Hmdx Definition


Wind Chill Definition


Weather Definition


00:00 6.3 4.8 90 0.0 21 10   102.00     LegendNANA
01:00 6.7 5.7 93 0.0 19 23   102.03     LegendNANA
02:00 6.0 5.0 93 0.0 21 12   102.14     LegendNANA
03:00 6.6 5.6 93 0.0 13 8   102.23     LegendNANA
04:00 6.7 4.9 89 0.0 12 14   102.29     LegendNANA
05:00 6.4 4.8 90 0.0 12 19   102.24     LegendNANA
06:00 6.5 4.4 86 0.0 12 22   102.18     LegendNANA
07:00 6.5 3.8 83 0.0 12 22   102.20     LegendNANA
08:00 6.0 4.0 87 0.0 7 15   102.22     LegendNANA
09:00 6.0 3.8 86 0.0 9 16   102.15     LegendNANA
10:00 6.2 4.1 86 0.0 11 20   102.11     LegendNANA
11:00 6.5 3.7 83 0.0 11 12   102.12     LegendNANA
12:00 7.7 4.2 78 0.0 9 15   101.94     LegendNANA
13:00 7.8 3.9 76 0.0 10 15   101.78     LegendNANA
14:00 8.3 4.1 75 0.0 10 14   101.66     LegendNANA
15:00 7.8 4.0 77 0.0 8 11   101.57     LegendNANA
16:00 8.4 3.8 73 0.0 11 15   101.47     LegendNANA
17:00 8.3 5.1 80 0.0 15 21   101.37     LegendNANA
18:00 7.7 5.8 87 1.2 15 23   101.34     LegendNANA
19:00 7.8 6.5 91 1.6 16 24   101.24     LegendNANA
20:00 8.4 7.1 92 0.8 16 26   101.20     LegendNANA
21:00 8.5 7.4 93 0.4 16 38   101.20     LegendNANA
22:00 8.6 7.5 93 0.0 16 34   101.21     LegendNANA
23:00 8.6 7.4 93 0.0 16 33   101.32     LegendNANA

Notes on Data Quality.

Legend

  • E = Estimated
  • M = Missing
  • NA = Not Available*
  • [empty] = Indicates an unobserved value
Date modified: